Weather History for KICT - February, 2014

Change the Weather History Date:

Thursday, February 6, 2014

  Actual Average Record
Temperature  
Mean Temperature 8 °F 35 °F  
Max Temperature 12 °F 46 °F 74 °F (1904)
Min Temperature 4 °F 24 °F -21 °F (1982)
Degree Days  
Heating Degree Days 57 30  
Month to date heating degree days 276 184  
Since 1 July heating degree days 3250 3044  
Cooling Degree Days 0 0  
Month to date cooling degree days 0 0  
Year to date cooling degree days 0 0  
Moisture  
Dew Point -5 °F    
Average Humidity 58    
Maximum Humidity 69    
Minimum Humidity 46    
Precipitation  
Precipitation T in 0.03 in 1.04 in (1892)
Month to date precipitation 0.61 0.20  
Year to date precipitation 0.74 1.03  
Snow  
Snow T in 0.10 in 3.80 in (1961)
Month to date snowfall 8.7 0.8  
Since 1 July snowfall 15.1 10.0  
Snow Depth 5.00 in    
Sea Level Pressure  
Sea Level Pressure 30.62 in    
Wind  
Wind Speed 7 mph (NNE)    
Max Wind Speed 14 mph    
Max Gust Speed 16 mph    
Visibility 10 miles    
Events      
T = Trace of Precipitation, MM = Missing Value Source: NWS Daily Summary

Daily Weather History Graph

Daily Weather History Graph

Search for Another Location

Airport or City:

Trip Planner

Search our weather history database for the weather conditions in past years. The results will help you decide how hot, cold, wet, or windy it might be!

Date:

Astronomy

Feb. 06, 2014 Rise Set
Actual Time 7:28 AM CST 5:59 PM CST
Civil Twilight 7:01 AM CST 6:26 PM CST
Nautical Twilight 6:30 AM CST 6:57 PM CST
Astronomical Twilight 5:59 AM CST 7:28 PM CST
Moon 11:32 AM CST (2/6) 12:45 AM CST (2/6)
Length of Visible Light 11h 24m
Length of Day
10h 30m
Waxing Crescent, 49% of the Moon is Illuminated
Feb 6
Waxing Crescent
Feb 6
First Quarter
Feb 14
Full
Feb 22
Last Quarter
Mar 1
New

Hourly Weather History & Observations

Time (CST) Temp. Windchill Dew Point Humidity Pressure Visibility Wind Dir Wind Speed Gust Speed Precip Events Conditions
12:53 AM 7.0 °F -6.6 °F -4.0 °F 61% 30.72 in 10.0 mi North 9.2 mph - N/A   Overcast
1:53 AM 7.0 °F -4.5 °F -2.9 °F 64% 30.71 in 10.0 mi North 6.9 mph - N/A   Overcast
2:53 AM 7.0 °F -6.6 °F -2.9 °F 64% 30.71 in 10.0 mi NNE 9.2 mph - N/A   Overcast
3:53 AM 6.1 °F -7.8 °F -4.0 °F 63% 30.70 in 10.0 mi NNE 9.2 mph - N/A   Overcast
4:53 AM 6.1 °F -10.2 °F -5.1 °F 60% 30.70 in 10.0 mi NNE 12.7 mph - N/A   Overcast
5:53 AM 6.1 °F -7.8 °F -6.0 °F 58% 30.71 in 10.0 mi NNE 9.2 mph - N/A   Overcast
6:53 AM 5.0 °F -9.1 °F -7.1 °F 58% 30.71 in 10.0 mi NNE 9.2 mph - N/A   Overcast
7:53 AM 3.9 °F -8.2 °F -7.1 °F 60% 30.71 in 10.0 mi NNE 6.9 mph - N/A   Mostly Cloudy
8:53 AM 5.0 °F -10.0 °F -6.0 °F 61% 30.71 in 10.0 mi NNE 10.4 mph - N/A   Mostly Cloudy
9:53 AM 7.0 °F -8.3 °F -5.1 °F 58% 30.71 in 10.0 mi NE 11.5 mph - N/A   Mostly Cloudy
10:53 AM 8.1 °F -4.3 °F -6.0 °F 53% 30.70 in 10.0 mi NNE 8.1 mph - N/A   Mostly Cloudy
11:53 AM 10.0 °F 3.6 °F -6.0 °F 48% 30.68 in 10.0 mi NNE 3.5 mph - N/A   Mostly Cloudy
12:53 PM 10.9 °F 1.4 °F -6.0 °F 47% 30.66 in 10.0 mi NNW 5.8 mph - N/A   Overcast
1:53 PM 12.0 °F 0.5 °F -5.1 °F 46% 30.60 in 10.0 mi North 8.1 mph - N/A   Overcast
2:53 PM 10.9 °F -1.8 °F -5.1 °F 49% 30.58 in 10.0 mi North 9.2 mph - N/A   Overcast
3:53 PM 10.9 °F -0.8 °F -5.1 °F 49% 30.56 in 10.0 mi NNE 8.1 mph - N/A   Overcast
4:53 PM 10.0 °F -2.9 °F -5.1 °F 51% 30.54 in 10.0 mi NE 9.2 mph - N/A   Overcast
5:53 PM 10.0 °F 0.4 °F -5.1 °F 51% 30.54 in 10.0 mi East 5.8 mph - N/A   Overcast
6:53 PM 10.0 °F 3.6 °F -5.1 °F 51% 30.55 in 10.0 mi ENE 3.5 mph - N/A   Overcast
7:53 PM 10.0 °F - -4.0 °F 53% 30.55 in 10.0 mi Calm Calm - N/A   Overcast
8:53 PM 10.0 °F 1.8 °F -2.9 °F 56% 30.53 in 10.0 mi ENE 4.6 mph - N/A   Overcast
9:53 PM 10.0 °F 1.8 °F -2.9 °F 56% 30.52 in 10.0 mi ENE 4.6 mph - N/A   Overcast
10:53 PM 9.0 °F -0.9 °F -2.0 °F 61% 30.50 in 10.0 mi NE 5.8 mph - N/A   Overcast
11:53 PM 9.0 °F -0.9 °F -2.9 °F 59% 30.48 in 10.0 mi East 5.8 mph - N/A   Overcast